Location: Kuppenheim
(48.8299°N, 8.2568°E)
Time: 08:22:52
(UTC+00:00)

N. Korean satellite - Pass Details

Date: 04 December 2022
Orbit: 407 x 442 km, 97.3° (Epoch: 04 February)

Event Time Altitude Azimuth Distance (km) Brightness Sun altitude
Rises 05:03:09 0° 10° (N) 2,523 10.2 -18.8°
Maximum altitude 05:08:44 69° 286° (WNW) 503 6.3 -17.9°
Drops below altitude 10° 05:12:09 10° 202° (SSW) 1,601 9.1 -17.3°
Sets 05:14:10 0° 200° (SSW) 2,461 10.1 -17.0°
